Location: Eaton
(41.3139°N, 82.0207°W)
Time: 07:44:44
(UTC+00:00)

ATLAS 5 CENTAUR R/B - Pass Details

Date: 23 October 2021
Orbit: 497 x 1159 km, 63.4° (Epoch: 25 November)

Event Time Altitude Azimuth Distance (km) Brightness Sun altitude
Rises 23:10:09 0° 238° (WSW) 2,588 6.2 -7.3°
Reaches altitude 10° 23:12:22 10° 249° (WSW) 1,737 5.5 -7.7°
Maximum altitude 23:15:51 32° 314° (NW) 953 3.0 -8.4°
Drops below altitude 10° 23:19:42 10° 19° (NNE) 1,940 3.8 -9.1°
Sets 23:22:20 0° 29° (NNE) 2,949 4.7 -9.6°
